This is the latest recevied weather packets stored in our database for station/object KK4KTV-13. If no packets are shown the sender has not sent any weather packets the latest 10 day(s).
| Time | Temp. | Humidity | Pressure | Rain* | Wind** | Luminosity | Snow |
|---|---|---|---|---|---|---|---|
| 1777297779 | 20.56° C | 76% | 1016 hPa | 0 mm | - | 359 W/m² | - |
| 1777297478 | 20° C | 78% | 1015.9 hPa | 0 mm | - | 373 W/m² | - |
| 1777297174 | 19.44° C | 78% | 1015.8 hPa | 0 mm | - | 188 W/m² | - |
| 1777296872 | 20° C | 79% | 1015.9 hPa | 0 mm | - | 157 W/m² | - |
| 1777296567 | 18.89° C | 81% | 1015.9 hPa | 0 mm | - | 279 W/m² | - |
| 1777296233 | 18.89° C | 83% | 1015.8 hPa | 0 mm | - | 258 W/m² | - |
| 1777295929 | 17.78° C | 86% | 1015.8 hPa | 0 mm | - | 140 W/m² | - |
| 1777295626 | 17.78° C | 89% | 1015.7 hPa | 0 mm | - | 151 W/m² | - |
| 1777295323 | 16.67° C | 90% | 1015.6 hPa | 0 mm | - | 221 W/m² | - |
| 1777295022 | 16.11° C | 92% | 1015.6 hPa | 0 mm | - | 278 W/m² | - |
| 1777294712 | 15.56° C | 94% | 1015.8 hPa | 0 mm | - | 291 W/m² | - |
| 1777294407 | 15° C | 95% | 1015.6 hPa | 0 mm | - | 250 W/m² | - |
| 1777294104 | 13.89° C | 96% | 1015.6 hPa | 0 mm | - | 221 W/m² | - |
| 1777293802 | 13.89° C | 97% | 1015.8 hPa | 0 mm | - | 180 W/m² | - |
| 1777293496 | 13.33° C | 97% | 1015.9 hPa | 0 mm | - | 146 W/m² | - |
| 1777293193 | 12.78° C | 98% | 1015.9 hPa | 0 mm | - | 135 W/m² | - |
| 1777292892 | 12.22° C | 98% | 1016.1 hPa | 0 mm | - | 124 W/m² | - |
| 1777292588 | 12.22° C | 99% | 1016.2 hPa | 0 mm | - | 115 W/m² | - |
| 1777292284 | 12.22° C | 99% | 1016 hPa | 0 mm | - | 101 W/m² | - |
| 1777291980 | 11.67° C | 99% | 1016.2 hPa | 0 mm | - | 94 W/m² | - |
| 1777291677 | 11.11° C | 99% | 1016.1 hPa | 0 mm | - | 85 W/m² | - |
| 1777291374 | 11.11° C | 99% | 1016.2 hPa | 0 mm | - | 77 W/m² | - |
| 1777291070 | 10.56° C | 99% | 1016.2 hPa | 0 mm | - | 67 W/m² | - |
| 1777290767 | 10.56° C | 99% | 1016 hPa | 0 mm | - | 65 W/m² | - |
| 1777290463 | 10.56° C | 99% | 1015.9 hPa | 0 mm | - | 58 W/m² | - |
* Rain latest hour (hover to see other rain measurements)
** Current wind speed in m/s (hover to see current wind gust speed)